Log in  \/ 
x
x

Montgomery Operations

Montgomery Operations for Plus One Flyers is located at: Gibbs Flying Service, 3717 John J Montgomery Dr, San Diego, CA 92123

We have completed a remodel of the Plus One Flyers office space and now we have a computer room with 3 new computers, 2 new copier/ printers on line. We also have a classroom/ meeting room with no simulators, and the Elite and Redbird sims have moved to the old computer area. 

Come take a look, its really nice and very user friendly.

BE Safe

Dave Eby

Additional info
  • Operations Officer: Dave Eby
  • Phone Number: 619-279-7499
  • E-Mail: myfops@plusoneflyers.org
Comments

People in this conversation

  • Annette Goff

    Kind of miss that link to the NOAA three day weather history. Makes for better flight planning and is a good tool. Just a thought.

Leave your comments

0 Character restriction
Your text should be more than 10 characters
terms and condition.
Special Instructions

None

Montgomery Weather

[source: ADDS]
METAR
KMYF 290453Z AUTO 21005KT 10SM BKN011 17/13 A2992 RMK AO2 SLP128 T01720133 =
KNKX 290455Z 21004KT 10SM BKN012 17/12 A2992 RMK AO2 SLP124 T01720122 $ =
TAF
TAF KNKX 2903/3003 VRB05KT 9999 SCT010 QNH2987INS BECMG 2904/2906 VRB05KT 9999 BKN010 QNH2989INS TEMPO 2906/2912 3200 BR OVC005 BECMG 2914/2916 22007KT 9999 SCT010 QNH2989INS FM300130 VRB05KT 9999 BKN010 QNH2989INS T16/2912Z T26/2922Z =
SR / SS: 12:43 / 03:00 UTC ( 2017-06-29)

Montgomery Operations Map